Regional Weather Roundup
Issued by NWS Midland/Odessa, TX

Home | Current Version | Previous Version | Text Only | Print | Product List | Glossary On
Versions: 1 2 3 4 5 6 7 8 9 10 11 12 13 14 15 16 17 18 19 20 21 22 23 24 25 26 27 28 29 30 31 32 33 34 35 36 37 38 39 40 41 42 43 44 45 46 47 48 49 50
000
ASUS44 KMAF 061101
RWRMAF
MIDLAND AREA WEATHER ROUNDUP
NATIONAL WEATHER SERVICE MIDLAND TX
600 AM CDT WED MAY 06 2015

...IN SOUTHWEST TEXAS AND SOUTHEAST NEW MEXICO...

CITY           SKY/WX    TMP DP  RH WIND       PRES   REMARKS
ALPINE         CLEAR     49  41  72 SW8       30.03R
ANDREWS        CLOUDY    64  64 100 S13G18    29.89S
ARTESIA        CLEAR     52  45  76 NW6       29.88R
BIG SPRING     PTCLDY    66  63  90 SE9       29.91R
CARLSBAD       CLEAR     58  43  57 SW3       29.87R
DRYDEN           N/A     72  67  84 SE10      29.86S
FORT STOCKTON  CLEAR     63  61  93 S9        29.89S
GUAD PASS      NOT AVBL
HOBBS          CLOUDY    59  59 100 S12       29.91R FOG
MARFA          CLEAR     43  30  61 CALM      30.00S
MIDLAND AIRPK  CLOUDY    68  63  85 S9        29.89S
MIDLAND INTL   CLOUDY    67  63  87 S13       29.88S
ODESSA         CLOUDY    67  62  84 S17       29.89S
PECOS          CLEAR     52  39  63 SE9       29.88R
PRESIDIO       FAIR      71  47  43 N6G23     29.88R
SEMINOLE       CLOUDY    63  62  97 S14G21    29.90R FOG
SNYDER         PTCLDY    64  63  97 S13       29.88S
WINK           CLEAR     62  59  90 SE7       29.86R FOG
$$
...OTHER STATIONS IN TEXAS...

CITY           SKY/WX    TMP DP  RH WIND       PRES   REMARKS
ABILENE        MOCLDY    68  65  90 SE9       29.88R
AMARILLO       CLEAR     52  49  89 S9        29.81R
AUSTIN         CLOUDY    71  70  96 S10       29.92R
BROWNSVILLE    MOCLDY    76  72  87 SE14      29.86F
CORPUS CHRISTI MOCLDY    75  71  87 SE15      29.89R
DALLAS FTW     CLOUDY    68  66  93 SE13      29.93S
DEL RIO        CLOUDY    73  69  87 SE14      29.84R
EL PASO        CLEAR     61  39  44 SW9       29.93S
HOUSTON INT    CLOUDY    74  69  85 SE14      29.95R
LUBBOCK        CLOUDY    63  60  90 SW25G32   29.85R
SAN ANGELO     PTCLDY    67  64  90 CALM      29.87S
SAN ANTONIO    CLOUDY    73  69  87 SE14      29.92R
WACO           CLOUDY    69  67  93 S9        29.95S
WICHITA FALLS  NOT AVBL
$$
...OTHER LOCATIONS IN NEW MEXICO...

CITY           SKY/WX    TMP DP  RH WIND       PRES   REMARKS
ALAMAGORDO     PTCLDY    55  36  47 E5        29.93S
ALBUQUERQUE    MOCLDY    53  43  68 S7        29.94S
CANNON AFB     NOT AVBL
CLOVIS         CLEAR     50  45  81 SW9       29.85S
HOLLOMAN AFB   PTCLDY    56  39  52 NE3       29.91S
ROSWELL        PTCLDY    50  46  86 NW5       29.87S
RUIDOSO        CLEAR     48  34  57 SW5       30.00S
SANTA FE       PTCLDY    46  42  86 SW9       29.93R
TRUTH OR CONSE PTCLDY    54  38  54 NW9       29.95R
TUCUMCARI      CLEAR     52  46  80 SW13      29.78S
$$



USA.gov is the U.S. government's official web portal to all federal, state and local government web resources and services.